Simultaneous Nadir Overpasses (SNOs) Predictions

Prediction of SNOs between GOES-14 and NOAA-20 Satellite Orbit:

Table of predicted SNOs for the next 14.0 days since TLE Epoch: 3/13/2020
Index Date Time (GOES-14) GOES-14 Lat,Lon NOAA-20 Lat,Lon Distance(km) Time Diff (sec)
1 03/13/2020 20:23:57 -0.10,-104.05 -0.16,-104.29 27.77 80
2 03/14/2020 20:02:33 -0.10,-104.05 0.84, -99.76 488.10 80
3 03/16/2020 08:24:22 0.11,-104.18 0.29,-105.04 98.03 80
4 03/17/2020 08:08:17 0.11,-104.18 -0.71,-100.50 418.99 80
5 03/18/2020 20:30:14 -0.12,-104.06 -0.51,-105.80 197.94 80
6 03/19/2020 20:08:49 -0.12,-104.06 0.49,-101.26 318.10 80
7 03/21/2020 08:30:38 0.12,-104.18 0.64,-106.54 269.62 80
8 03/22/2020 08:14:34 0.12,-104.18 -0.36,-102.01 247.77 80
9 03/23/2020 20:36:30 -0.12,-104.09 -0.85,-107.31 366.60 80
10 03/24/2020 20:15:06 -0.12,-104.09 0.15,-102.77 149.69 80
11 03/26/2020 08:36:55 0.12,-104.19 0.98,-108.05 439.83 80
12 03/27/2020 08:20:51 0.13,-104.20 -0.03,-103.52 77.69 80




NCC Satellite Simultaneous Nadir Overpasses (SNOs) Prediction Service
